START_TIME,STEP,MOV.,M15,t_acc.,M20,t_acc.
1979-07-13 18:00:44.220 ,0,1,0.,24.0,0.,24.0
1979-07-13 18:01:08.220 ,4,1,0.,24.0,0.,24.0
1979-07-13 18:01:32.220 ,7,1,0.,24.0,0.,24.0
1979-07-13 18:01:56.220 ,3,1,0.,24.0,0.,24.0
1979-07-13 18:02:20.220 ,0,1,0.,24.0,0.,24.0
1979-07-13 18:02:44.220 ,4,1,0.,24.0,0.,24.0
1979-07-13 18:03:08.220 ,7,1,0.,24.0,0.,24.0
1979-07-13 18:03:32.220 ,3,1,0.,24.0,0.,24.0
1979-07-13 18:03:56.220 ,0,1,0.,24.0,0.,24.0
1979-07-13 18:04:20.220 ,4,1,0.,24.0,0.,24.0
1979-07-13 18:04:44.220 ,7,1,0.,24.0,0.,24.0
1979-07-13 18:05:08.220 ,3,1,0.,24.0,0.,24.0
1979-07-13 18:05:32.220 ,0,1,0.,24.0,0.,24.0
1979-07-13 18:05:56.220 ,0,0,0.,24.0,0.,24.0
1979-07-13 18:06:20.220 ,0,0,0.,24.0,0.,24.0
1979-07-13 18:06:44.220 ,5,1,0.,24.0,0.,24.0
1979-07-13 18:07:08.220 ,5,0,0.,24.0,0.,24.0
1979-07-13 18:07:32.220 ,4,1,0.,24.0,0.,24.0
1979-07-13 18:07:56.220 ,4,0,0.,24.0,0.,24.0
1979-07-13 18:08:20.220 ,3,1,0.,24.0,0.,24.0
1979-07-13 18:08:44.220 ,3,0,0.,24.0,0.,24.0
1979-07-13 18:09:08.220 ,2,1,0.,24.0,0.,24.0
1979-07-13 18:09:32.220 ,2,0,0.,24.0,0.,24.0
1979-07-13 18:09:56.220 ,1,1,0.,24.0,0.,24.0
1979-07-13 18:10:20.220 ,1,0,0.,24.0,0.,24.0
1979-07-13 18:10:44.220 ,0,1,0.,24.0,0.,24.0
1979-07-13 18:11:08.220 ,0,0,0.,24.0,0.,24.0
1979-07-13 18:11:32.220 ,0,1,0.,24.0,0.,24.0
1979-07-13 18:11:56.220 ,0,0,0.,24.0,0.,24.0
1979-07-13 18:12:20.220 ,1,1,0.,24.0,0.,24.0
1979-07-13 18:12:44.220 ,1,0,0.,24.0,0.,24.0
1979-07-13 18:13:08.220 ,2,1,0.,24.0,0.,24.0
1979-07-13 18:13:32.220 ,2,0,0.,24.0,0.,24.0
1979-07-13 18:13:56.220 ,3,1,0.,24.0,0.,24.0
1979-07-13 18:14:20.220 ,3,0,0.,24.0,0.,24.0
1979-07-13 18:14:44.220 ,4,1,1.,24.0,0.,24.0
1979-07-13 18:15:08.220 ,4,0,0.,24.0,0.,24.0
1979-07-13 18:15:32.220 ,5,1,0.,24.0,0.,24.0
1979-07-13 18:15:56.220 ,5,0,0.,24.0,0.,24.0
1979-07-13 18:16:20.220 ,6,1,0.,24.0,0.,24.0
1979-07-13 18:16:44.220 ,6,0,0.,24.0,0.,24.0
1979-07-13 18:17:08.220 ,7,1,0.,24.0,0.,24.0
1979-07-13 18:17:32.220 ,7,0,0.,24.0,0.,24.0
1979-07-13 18:17:56.220 ,7,1,0.,24.0,0.,24.0
1979-07-13 18:18:20.220 ,7,0,0.,24.0,0.,24.0
1979-07-13 18:18:44.220 ,6,1,0.,24.0,0.,24.0
1979-07-13 18:19:08.220 ,6,0,0.,24.0,0.,24.0
1979-07-13 18:19:32.220 ,5,1,0.,24.0,0.,24.0
1979-07-13 18:19:56.220 ,5,0,0.,24.0,0.,24.0
1979-07-13 18:20:20.220 ,4,1,0.,24.0,0.,24.0
1979-07-13 18:20:44.220 ,4,0,0.,24.0,0.,24.0
1979-07-13 18:21:08.220 ,3,1,0.,24.0,0.,24.0
1979-07-13 18:21:32.220 ,3,0,0.,24.0,0.,24.0
1979-07-13 18:21:56.220 ,2,1,0.,24.0,0.,24.0
1979-07-13 18:22:20.220 ,2,0,0.,24.0,0.,24.0
1979-07-13 18:23:32.220 ,0,0,0.,24.0,0.,24.0
1979-07-13 18:23:56.220 ,0,0,1.,24.0,0.,24.0
1979-07-13 18:24:20.220 ,0,1,0.,24.0,0.,24.0
1979-07-13 18:24:44.220 ,0,0,0.,24.0,0.,24.0
1979-07-13 18:25:08.220 ,1,1,0.,24.0,0.,24.0
1979-07-13 18:25:32.220 ,1,0,0.,24.0,0.,24.0
1979-07-13 18:25:56.220 ,2,1,1.,24.0,0.,24.0
1979-07-13 18:26:20.220 ,2,0,0.,24.0,0.,24.0
1979-07-13 18:26:44.220 ,3,1,0.,24.0,0.,24.0
1979-07-13 18:27:08.220 ,3,0,0.,24.0,0.,24.0
1979-07-13 18:27:32.220 ,4,1,0.,24.0,0.,24.0
1979-07-13 18:27:56.220 ,4,0,0.,24.0,0.,24.0
1979-07-13 18:28:20.220 ,5,1,0.,24.0,0.,24.0
1979-07-13 18:28:44.220 ,5,0,0.,24.0,0.,24.0
1979-07-13 18:29:08.220 ,6,1,0.,24.0,0.,24.0
1979-07-13 18:29:32.220 ,6,0,0.,24.0,0.,24.0
1979-07-13 18:29:56.220 ,7,1,0.,24.0,0.,24.0
1979-07-13 18:30:20.220 ,7,0,0.,24.0,0.,24.0
1979-07-13 18:30:44.220 ,7,1,1.,24.0,0.,24.0
1979-07-13 18:31:08.220 ,7,0,0.,24.0,0.,24.0
1979-07-13 18:31:32.220 ,6,1,0.,24.0,0.,24.0
1979-07-13 18:31:56.220 ,6,0,0.,24.0,0.,24.0
1979-07-13 18:32:20.220 ,5,1,0.,24.0,0.,24.0
1979-07-13 18:32:44.220 ,5,0,0.,24.0,0.,24.0
1979-07-13 18:33:08.220 ,4,1,0.,24.0,0.,24.0
1979-07-13 18:33:32.220 ,4,0,0.,24.0,0.,24.0
1979-07-13 18:33:56.220 ,3,1,0.,24.0,0.,24.0
1979-07-13 18:34:20.220 ,3,0,0.,24.0,0.,24.0
1979-07-13 18:34:44.220 ,2,1,0.,24.0,0.,24.0
1979-07-13 18:35:08.220 ,2,0,0.,24.0,0.,24.0
1979-07-13 18:35:32.220 ,1,1,0.,24.0,0.,24.0
1979-07-13 18:35:56.220 ,1,0,0.,24.0,0.,24.0
1979-07-13 18:36:20.220 ,0,1,0.,24.0,0.,24.0
1979-07-13 18:36:44.220 ,0,0,0.,24.0,0.,24.0
1979-07-13 18:37:08.220 ,0,1,0.,24.0,0.,24.0
1979-07-13 18:37:32.220 ,0,0,0.,24.0,0.,24.0
1979-07-13 18:37:56.220 ,1,1,0.,24.0,0.,24.0
1979-07-13 18:38:20.220 ,1,0,0.,24.0,0.,24.0
1979-07-13 18:38:44.210 ,2,1,0.,24.0,0.,24.0
1979-07-13 18:39:08.210 ,2,0,1.,24.0,0.,24.0
1979-07-13 18:39:32.210 ,3,1,0.,24.0,0.,24.0
1979-07-13 18:39:56.210 ,3,0,0.,24.0,0.,24.0
1979-07-13 18:40:20.210 ,4,1,0.,24.0,0.,24.0
1979-07-13 18:40:44.210 ,4,0,0.,24.0,0.,24.0
1979-07-13 18:41:08.210 ,5,1,0.,24.0,0.,24.0
1979-07-13 18:41:32.210 ,5,0,0.,24.0,0.,24.0
1979-07-13 18:41:56.210 ,6,1,0.,24.0,0.,24.0
1979-07-13 18:42:20.210 ,6,0,0.,24.0,0.,24.0
1979-07-13 18:42:44.210 ,7,0,0.,24.0,0.,24.0
1979-07-13 18:43:08.210 ,7,0,0.,24.0,0.,24.0
1979-07-13 18:43:32.210 ,3,1,0.,24.0,0.,24.0
1979-07-13 18:43:56.210 ,0,1,0.,24.0,0.,24.0
1979-07-13 18:44:20.210 ,4,1,0.,24.0,0.,24.0
1979-07-13 18:44:44.210 ,7,1,0.,24.0,0.,24.0
1979-07-13 18:45:08.210 ,3,1,0.,24.0,0.,24.0
1979-07-13 18:45:32.210 ,0,1,0.,24.0,0.,24.0
1979-07-13 18:45:56.210 ,4,1,0.,24.0,0.,24.0
1979-07-13 18:46:20.210 ,7,1,0.,24.0,0.,24.0
1979-07-13 18:46:44.210 ,3,1,0.,24.0,0.,24.0
1979-07-13 18:47:08.210 ,0,1,0.,24.0,0.,24.0
1979-07-13 18:47:32.210 ,4,1,1.,24.0,0.,24.0
1979-07-13 18:47:56.210 ,7,1,0.,24.0,0.,24.0
1979-07-13 18:48:20.210 ,3,1,0.,24.0,0.,24.0
1979-07-13 18:48:44.210 ,0,1,0.,24.0,0.,24.0
1979-07-13 18:49:08.210 ,4,1,0.,24.0,0.,24.0
1979-07-13 18:49:32.210 ,7,1,0.,24.0,0.,24.0
1979-07-13 18:49:56.210 ,0,0,,0,,0
1979-07-13 18:50:20.210 ,0,0,,0,,0
1979-07-13 18:50:20.210 ,0,1,0.,24.0,0.,24.0
1979-07-13 18:50:44.210 ,4,1,0.,24.0,0.,24.0
1979-07-13 18:51:08.210 ,7,1,0.,24.0,0.,24.0
1979-07-13 18:51:32.210 ,3,1,0.,24.0,0.,24.0
1979-07-13 18:51:56.210 ,0,1,0.,24.0,0.,24.0
1979-07-13 18:52:20.210 ,4,1,0.,24.0,0.,24.0
1979-07-13 18:52:44.210 ,7,1,0.,24.0,0.,24.0
1979-07-13 18:53:08.210 ,3,1,0.,24.0,0.,24.0
1979-07-13 18:53:32.210 ,0,1,0.,24.0,0.,24.0
1979-07-13 18:53:56.210 ,0,0,1.,24.0,0.,24.0
1979-07-13 18:54:20.210 ,0,0,0.,24.0,0.,24.0
1979-07-13 18:54:44.210 ,5,1,0.,24.0,0.,24.0
1979-07-13 18:55:08.210 ,5,0,1.,24.0,0.,24.0
1979-07-13 18:55:32.210 ,4,1,0.,24.0,0.,24.0
1979-07-13 18:55:56.210 ,4,0,0.,24.0,0.,24.0
1979-07-13 18:56:20.210 ,3,1,0.,24.0,0.,24.0
1979-07-13 18:56:44.210 ,3,0,0.,24.0,0.,24.0
1979-07-13 18:57:08.210 ,2,1,0.,24.0,0.,24.0
1979-07-13 18:57:32.210 ,2,0,0.,24.0,0.,24.0
1979-07-13 18:57:56.210 ,1,1,0.,24.0,0.,24.0
1979-07-13 18:58:20.210 ,1,0,0.,24.0,0.,24.0
1979-07-13 18:58:44.210 ,0,1,0.,24.0,0.,24.0
1979-07-13 18:59:08.210 ,0,0,0.,24.0,0.,24.0
1979-07-13 18:59:32.210 ,0,1,0.,24.0,0.,24.0
1979-07-13 18:59:56.210 ,0,0,0.,24.0,0.,24.0
1979-07-13 19:00:20.210 ,1,1,0.,24.0,0.,24.0
1979-07-13 19:00:44.220 ,1,0,0.,24.0,0.,24.0
1979-07-13 19:01:08.220 ,2,1,0.,24.0,0.,24.0
1979-07-13 19:01:32.220 ,2,0,0.,24.0,0.,24.0
1979-07-13 19:01:56.220 ,3,1,0.,24.0,0.,24.0
1979-07-13 19:02:20.220 ,3,0,1.,24.0,0.,24.0
1979-07-13 19:02:44.220 ,4,1,0.,24.0,0.,24.0
1979-07-13 19:03:08.220 ,4,0,0.,24.0,0.,24.0
1979-07-13 19:03:32.220 ,5,1,0.,24.0,0.,24.0
1979-07-13 19:03:56.220 ,5,0,0.,24.0,0.,24.0
1979-07-13 19:04:20.210 ,6,1,0.,24.0,0.,24.0
1979-07-13 19:04:44.220 ,6,0,0.,24.0,0.,24.0
1979-07-13 19:05:08.210 ,7,1,0.,24.0,0.,24.0
1979-07-13 19:05:32.220 ,7,0,0.,24.0,0.,24.0
1979-07-13 19:05:56.210 ,7,1,0.,24.0,0.,24.0
1979-07-13 19:06:20.210 ,7,0,0.,24.0,0.,24.0
1979-07-13 19:06:44.210 ,6,1,0.,24.0,0.,24.0
1979-07-13 19:07:08.210 ,6,0,0.,24.0,0.,24.0
1979-07-13 19:07:32.210 ,5,1,0.,24.0,0.,24.0
1979-07-13 19:07:56.210 ,5,0,0.,24.0,0.,24.0
1979-07-13 19:08:20.210 ,4,1,0.,24.0,0.,24.0
1979-07-13 19:08:44.210 ,4,0,0.,24.0,0.,24.0
1979-07-13 19:09:08.210 ,3,1,0.,24.0,0.,24.0
1979-07-13 19:09:32.210 ,3,0,0.,24.0,0.,24.0
1979-07-13 19:09:56.210 ,2,1,0.,24.0,0.,24.0
1979-07-13 19:10:20.210 ,2,0,1.,24.0,0.,24.0
1979-07-13 19:10:44.210 ,1,1,0.,24.0,0.,24.0
1979-07-13 19:11:08.210 ,1,0,0.,24.0,0.,24.0
1979-07-13 19:11:32.210 ,0,1,0.,24.0,0.,24.0
1979-07-13 19:11:56.210 ,0,0,0.,24.0,0.,24.0
1979-07-13 19:12:20.210 ,0,1,0.,24.0,0.,24.0
1979-07-13 19:12:44.210 ,0,0,0.,24.0,0.,24.0
1979-07-13 19:13:08.210 ,1,1,0.,24.0,0.,24.0
1979-07-13 19:13:32.210 ,1,0,0.,24.0,0.,24.0
1979-07-13 19:13:56.210 ,2,1,0.,24.0,0.,24.0
1979-07-13 19:14:20.210 ,2,0,0.,24.0,0.,24.0
1979-07-13 19:14:44.210 ,3,1,0.,24.0,0.,24.0
1979-07-13 19:15:08.210 ,3,0,0.,24.0,0.,24.0
1979-07-13 19:15:32.210 ,4,1,0.,24.0,0.,24.0
1979-07-13 19:15:56.210 ,4,0,0.,24.0,0.,24.0
1979-07-13 19:16:20.210 ,5,1,0.,24.0,0.,24.0
1979-07-13 19:16:44.210 ,5,0,0.,24.0,0.,24.0
1979-07-13 19:17:08.210 ,6,1,0.,24.0,0.,24.0
1979-07-13 19:17:32.210 ,6,0,0.,24.0,0.,24.0
1979-07-13 19:17:56.210 ,7,1,0.,24.0,0.,24.0
1979-07-13 19:18:20.210 ,7,0,0.,24.0,0.,24.0
1979-07-13 19:18:44.210 ,7,1,0.,24.0,0.,24.0
1979-07-13 19:19:08.210 ,7,0,0.,24.0,0.,24.0
1979-07-13 19:19:32.210 ,6,1,0.,24.0,0.,24.0
1979-07-13 19:19:56.210 ,6,0,0.,24.0,0.,24.0
1979-07-13 19:20:20.210 ,5,1,1.,24.0,0.,24.0
1979-07-13 19:20:44.210 ,5,0,0.,24.0,0.,24.0
1979-07-13 19:21:08.210 ,4,1,0.,24.0,0.,24.0
1979-07-13 19:21:32.210 ,4,0,0.,24.0,0.,24.0
1979-07-13 19:21:56.210 ,3,1,0.,24.0,0.,24.0
1979-07-13 19:22:20.210 ,3,0,0.,24.0,0.,24.0
1979-07-13 19:22:44.210 ,2,1,0.,24.0,0.,24.0
1979-07-13 19:23:08.210 ,2,0,0.,24.0,0.,24.0
1979-07-13 19:23:32.210 ,1,1,0.,24.0,0.,24.0
1979-07-13 19:23:56.210 ,1,0,0.,24.0,0.,24.0
1979-07-13 19:24:20.210 ,0,1,0.,24.0,0.,24.0
1979-07-13 19:24:44.210 ,0,0,0.,24.0,0.,24.0
1979-07-13 19:25:08.210 ,0,1,0.,24.0,0.,24.0
1979-07-13 19:25:32.210 ,0,0,0.,24.0,0.,24.0
1979-07-13 19:25:56.210 ,1,1,0.,24.0,0.,24.0
1979-07-13 19:26:20.210 ,1,0,0.,24.0,0.,24.0
1979-07-13 19:26:44.210 ,2,1,0.,24.0,0.,24.0
1979-07-13 19:27:08.210 ,2,0,0.,24.0,0.,24.0
1979-07-13 19:27:32.210 ,3,1,0.,24.0,0.,24.0
1979-07-13 19:27:56.210 ,3,0,0.,24.0,0.,24.0
1979-07-13 19:28:20.210 ,4,1,0.,24.0,0.,24.0
1979-07-13 19:28:44.210 ,4,0,0.,24.0,0.,24.0
1979-07-13 19:29:08.210 ,5,1,0.,24.0,0.,24.0
1979-07-13 19:29:32.210 ,5,0,0.,24.0,0.,24.0
1979-07-13 19:29:56.210 ,6,1,0.,24.0,0.,24.0
1979-07-13 19:30:20.210 ,0,0,,0,,0
1979-07-13 19:30:44.210 ,7,0,0.,24.0,0.,24.0
1979-07-13 19:31:08.210 ,7,0,0.,24.0,0.,24.0
1979-07-13 19:31:32.210 ,3,1,0.,24.0,0.,24.0
1979-07-13 19:31:56.210 ,0,1,0.,24.0,0.,24.0
1979-07-13 19:32:20.210 ,4,1,0.,24.0,0.,24.0
1979-07-13 19:32:44.210 ,7,1,0.,24.0,0.,24.0
1979-07-13 19:33:08.210 ,3,1,0.,24.0,0.,24.0
1979-07-13 19:33:32.210 ,0,1,0.,24.0,0.,24.0
1979-07-13 19:34:44.210 ,0,0,0.,24.0,0.,24.0
1979-07-13 19:35:08.210 ,0,1,0.,24.0,0.,24.0
1979-07-13 19:35:32.210 ,4,1,0.,24.0,0.,24.0
1979-07-13 19:35:56.210 ,7,1,0.,24.0,0.,24.0
1979-07-13 19:36:20.210 ,3,1,0.,24.0,0.,24.0
1979-07-13 19:36:44.210 ,0,1,0.,24.0,0.,24.0
1979-07-13 19:37:08.210 ,4,1,0.,24.0,0.,24.0
1979-07-13 19:37:32.210 ,7,1,0.,24.0,0.,24.0
1979-07-13 19:37:56.210 ,3,1,0.,24.0,0.,24.0
1979-07-13 19:38:20.210 ,0,1,0.,24.0,0.,24.0
1979-07-13 19:38:44.210 ,4,1,0.,24.0,0.,24.0
1979-07-13 19:39:08.210 ,7,1,0.,24.0,0.,24.0
1979-07-13 19:39:32.210 ,3,1,0.,24.0,0.,24.0
1979-07-13 19:39:56.210 ,0,1,0.,24.0,0.,24.0
1979-07-13 19:40:20.210 ,4,1,0.,24.0,0.,24.0
1979-07-13 19:40:44.210 ,7,1,0.,24.0,0.,24.0
1979-07-13 19:41:08.210 ,3,1,0.,24.0,0.,24.0
1979-07-13 19:41:32.210 ,0,1,0.,24.0,0.,24.0
1979-07-13 19:41:56.210 ,0,0,0.,24.0,0.,24.0
1979-07-13 19:42:20.210 ,0,0,0.,24.0,0.,24.0
1979-07-13 19:42:44.210 ,5,1,0.,24.0,0.,24.0
1979-07-13 19:43:08.210 ,5,0,0.,24.0,0.,24.0
1979-07-13 19:43:32.210 ,4,1,0.,24.0,0.,24.0
1979-07-13 19:43:56.210 ,4,0,0.,24.0,0.,24.0
1979-07-13 19:45:08.210 ,0,0,0.,24.0,0.,24.0
1979-07-13 19:45:32.210 ,0,0,0.,24.0,0.,24.0
1979-07-13 19:45:56.210 ,1,1,0.,24.0,0.,24.0
1979-07-13 19:46:20.210 ,1,0,0.,24.0,0.,24.0
1979-07-13 19:46:44.210 ,0,1,0.,24.0,0.,24.0
1979-07-13 19:47:08.210 ,0,0,0.,24.0,0.,24.0
1979-07-13 19:47:32.210 ,0,1,0.,24.0,0.,24.0
1979-07-13 19:47:56.210 ,0,0,0.,24.0,0.,24.0
1979-07-13 19:48:20.210 ,1,1,0.,24.0,0.,24.0
1979-07-13 19:48:44.210 ,1,0,0.,24.0,0.,24.0
1979-07-13 19:49:08.210 ,2,1,0.,24.0,0.,24.0
1979-07-13 19:49:32.210 ,2,0,0.,24.0,0.,24.0
1979-07-13 19:49:56.210 ,3,1,0.,24.0,0.,24.0
1979-07-13 19:50:20.210 ,3,0,0.,24.0,0.,24.0
1979-07-13 19:50:44.210 ,4,1,0.,24.0,0.,24.0
1979-07-13 19:51:08.210 ,4,0,0.,24.0,0.,24.0
1979-07-13 19:51:32.210 ,5,1,0.,24.0,0.,24.0
1979-07-13 19:51:56.210 ,5,0,0.,24.0,0.,24.0
1979-07-13 19:52:20.210 ,6,1,1.,24.0,0.,24.0
1979-07-13 19:52:44.210 ,6,0,0.,24.0,0.,24.0
1979-07-13 19:53:08.210 ,7,1,0.,24.0,0.,24.0
1979-07-13 19:53:32.210 ,7,0,0.,24.0,0.,24.0
1979-07-13 19:53:56.210 ,7,1,0.,24.0,0.,24.0
1979-07-13 19:54:20.210 ,7,0,0.,24.0,0.,24.0
1979-07-13 19:54:44.210 ,6,1,0.,24.0,0.,24.0
1979-07-13 19:55:08.210 ,6,0,0.,24.0,0.,24.0
1979-07-13 19:55:32.210 ,5,1,0.,24.0,0.,24.0
1979-07-13 19:55:56.210 ,5,0,0.,24.0,0.,24.0
1979-07-13 19:56:20.210 ,4,1,0.,24.0,0.,24.0
1979-07-13 19:56:44.210 ,4,0,0.,24.0,0.,24.0
1979-07-13 19:57:08.210 ,3,1,0.,24.0,0.,24.0
1979-07-13 19:57:32.210 ,3,0,0.,24.0,0.,24.0
1979-07-13 19:57:56.210 ,2,1,0.,24.0,0.,24.0
1979-07-13 19:58:20.210 ,2,0,0.,24.0,0.,24.0
1979-07-13 19:58:44.210 ,1,1,0.,24.0,0.,24.0
1979-07-13 19:59:08.210 ,1,0,0.,24.0,0.,24.0
1979-07-13 19:59:32.210 ,0,1,0.,24.0,0.,24.0
1979-07-13 19:59:56.210 ,0,0,0.,24.0,0.,24.0
1979-07-13 20:00:20.210 ,0,1,0.,24.0,0.,24.0
1979-07-13 20:00:44.210 ,0,0,0.,24.0,0.,24.0
1979-07-13 20:01:08.210 ,1,1,0.,24.0,0.,24.0
1979-07-13 20:01:32.210 ,1,0,0.,24.0,0.,24.0
1979-07-13 20:01:56.210 ,2,1,0.,24.0,0.,24.0
1979-07-13 20:02:20.210 ,2,0,0.,24.0,0.,24.0
1979-07-13 20:02:44.210 ,3,1,0.,24.0,0.,24.0
1979-07-13 20:03:08.210 ,3,0,0.,24.0,0.,24.0
1979-07-13 20:03:32.210 ,4,1,0.,24.0,0.,24.0
1979-07-13 20:03:56.210 ,4,0,0.,24.0,0.,24.0
1979-07-13 20:04:20.210 ,5,1,0.,24.0,0.,24.0
1979-07-13 20:04:44.210 ,5,0,0.,24.0,0.,24.0
1979-07-13 20:05:08.210 ,6,1,0.,24.0,0.,24.0
1979-07-13 20:05:32.210 ,6,0,0.,24.0,0.,24.0
1979-07-13 20:05:56.210 ,7,1,0.,24.0,0.,24.0
1979-07-13 20:06:20.210 ,7,0,0.,24.0,0.,24.0
1979-07-13 20:06:44.210 ,7,1,0.,24.0,0.,24.0
1979-07-13 20:07:08.210 ,7,0,0.,24.0,0.,24.0
1979-07-13 20:07:32.210 ,6,1,0.,24.0,0.,24.0
1979-07-13 20:07:56.210 ,6,0,0.,24.0,0.,24.0
1979-07-13 20:08:20.210 ,5,1,0.,24.0,0.,24.0
1979-07-13 20:08:44.210 ,5,0,0.,24.0,0.,24.0
1979-07-13 20:09:08.210 ,4,1,0.,24.0,0.,24.0
1979-07-13 20:09:32.210 ,4,0,0.,24.0,0.,24.0
1979-07-13 20:09:56.210 ,3,1,0.,24.0,0.,24.0
1979-07-13 20:10:20.210 ,3,0,0.,24.0,0.,24.0
1979-07-13 20:10:44.210 ,2,1,0.,24.0,0.,24.0
1979-07-13 20:11:08.210 ,2,0,1.,24.0,0.,24.0
1979-07-13 20:11:32.210 ,1,1,1.,24.0,0.,24.0
1979-07-13 20:11:56.210 ,1,0,0.,24.0,0.,24.0
1979-07-13 20:12:20.210 ,0,1,0.,24.0,0.,24.0
1979-07-13 20:12:44.210 ,0,0,0.,24.0,0.,24.0
1979-07-13 20:13:08.210 ,0,1,0.,24.0,0.,24.0
1979-07-13 20:13:32.210 ,0,0,0.,24.0,0.,24.0
1979-07-13 20:13:56.210 ,1,1,0.,24.0,0.,24.0
1979-07-13 20:14:20.210 ,1,0,0.,24.0,0.,24.0
1979-07-13 20:14:44.210 ,2,1,0.,24.0,0.,24.0
1979-07-13 20:15:08.210 ,2,0,0.,24.0,0.,24.0
1979-07-13 20:15:32.210 ,3,1,0.,24.0,0.,24.0
1979-07-13 20:15:56.210 ,3,0,0.,24.0,0.,24.0
1979-07-13 20:16:20.210 ,4,1,0.,24.0,0.,24.0
1979-07-13 20:16:44.210 ,4,0,0.,24.0,0.,24.0
1979-07-13 20:17:08.210 ,5,1,0.,24.0,0.,24.0
1979-07-13 20:17:32.210 ,5,0,0.,24.0,0.,24.0
1979-07-13 20:17:56.210 ,6,1,0.,24.0,0.,24.0
1979-07-13 20:18:20.210 ,6,0,0.,24.0,0.,24.0
1979-07-13 20:18:44.210 ,7,0,0.,24.0,0.,24.0
1979-07-13 20:19:08.210 ,7,0,0.,24.0,0.,24.0
1979-07-13 20:19:32.210 ,3,1,0.,24.0,0.,24.0
1979-07-13 20:19:56.210 ,0,1,0.,24.0,0.,24.0
1979-07-13 20:20:20.210 ,4,1,0.,24.0,0.,24.0
1979-07-13 20:20:44.210 ,7,1,0.,24.0,0.,24.0
1979-07-13 20:21:08.210 ,3,1,0.,24.0,0.,24.0
1979-07-13 20:21:32.210 ,0,1,0.,24.0,0.,24.0
1979-07-13 20:21:56.210 ,4,1,0.,24.0,0.,24.0
1979-07-13 20:22:20.210 ,7,1,0.,24.0,0.,24.0
1979-07-13 20:22:44.210 ,3,1,0.,24.0,0.,24.0
1979-07-13 20:23:08.210 ,0,1,0.,24.0,0.,24.0
1979-07-13 20:23:32.210 ,4,1,0.,24.0,0.,24.0
1979-07-13 20:23:56.210 ,7,1,0.,24.0,0.,24.0
1979-07-13 20:24:20.210 ,3,1,0.,24.0,0.,24.0
1979-07-13 20:24:44.210 ,0,1,1.,24.0,0.,24.0
1979-07-13 20:25:08.210 ,4,1,0.,24.0,0.,24.0
1979-07-13 20:25:32.210 ,7,1,0.,24.0,0.,24.0
1979-07-13 20:25:56.210 ,3,1,0.,24.0,0.,24.0
1979-07-13 20:26:20.210 ,0,1,0.,24.0,0.,24.0
1979-07-13 20:26:44.210 ,4,1,0.,24.0,0.,24.0
1979-07-13 20:27:08.210 ,7,1,0.,24.0,0.,24.0
1979-07-13 20:27:32.210 ,3,1,0.,24.0,0.,24.0
1979-07-13 20:27:56.210 ,0,1,0.,24.0,0.,24.0
1979-07-13 20:28:20.210 ,4,1,0.,24.0,0.,24.0
1979-07-13 20:28:44.210 ,7,1,0.,24.0,0.,24.0
1979-07-13 20:29:08.210 ,3,1,1.,24.0,0.,24.0
1979-07-13 20:29:32.210 ,0,1,0.,24.0,0.,24.0
1979-07-13 20:29:56.210 ,0,0,0.,24.0,0.,24.0
1979-07-13 20:30:20.210 ,0,0,0.,24.0,0.,24.0
1979-07-13 20:30:44.210 ,5,1,0.,24.0,0.,24.0
1979-07-13 20:31:08.210 ,5,0,0.,24.0,0.,24.0
1979-07-13 20:31:32.210 ,4,1,0.,24.0,0.,24.0
1979-07-13 20:31:56.210 ,4,0,0.,24.0,0.,24.0
1979-07-13 20:32:20.210 ,3,1,0.,24.0,0.,24.0
1979-07-13 20:32:44.210 ,3,0,1.,24.0,0.,24.0
1979-07-13 20:33:08.210 ,2,1,0.,24.0,0.,24.0
1979-07-13 20:33:32.210 ,2,0,0.,24.0,0.,24.0
1979-07-13 20:33:56.210 ,1,1,0.,24.0,0.,24.0
1979-07-13 20:34:20.210 ,1,0,0.,24.0,0.,24.0
1979-07-13 20:34:44.210 ,0,1,0.,24.0,0.,24.0
1979-07-13 20:35:08.210 ,0,0,0.,24.0,0.,24.0
1979-07-13 20:35:32.210 ,0,1,0.,24.0,0.,24.0
1979-07-13 20:35:56.210 ,0,0,0.,24.0,0.,24.0
1979-07-13 20:36:20.210 ,1,1,0.,24.0,0.,24.0
1979-07-13 20:36:44.210 ,1,0,0.,24.0,0.,24.0
1979-07-13 20:37:08.210 ,2,1,0.,24.0,0.,24.0
1979-07-13 20:37:32.210 ,2,0,0.,24.0,0.,24.0
1979-07-13 20:37:56.210 ,3,1,0.,24.0,0.,24.0
1979-07-13 20:38:20.210 ,3,0,0.,24.0,0.,24.0
1979-07-13 20:38:44.210 ,4,1,0.,24.0,0.,24.0
1979-07-13 20:39:08.210 ,4,0,0.,24.0,0.,24.0
1979-07-13 20:39:32.210 ,5,1,0.,24.0,0.,24.0
1979-07-13 20:39:56.210 ,5,0,0.,24.0,0.,24.0
1979-07-13 20:40:20.210 ,6,1,0.,24.0,0.,24.0
1979-07-13 20:40:44.210 ,6,0,1.,24.0,0.,24.0
1979-07-13 20:41:08.210 ,7,1,0.,24.0,0.,24.0
1979-07-13 20:41:32.210 ,7,0,0.,24.0,0.,24.0
1979-07-13 20:41:56.210 ,7,1,0.,24.0,0.,24.0
1979-07-13 20:42:20.210 ,0,0,,0,,0
1979-07-13 20:42:20.210 ,0,0,,0,,0
1979-07-13 20:42:44.210 ,6,1,0.,24.0,0.,24.0
1979-07-13 20:43:08.210 ,6,0,0.,24.0,0.,24.0
1979-07-13 20:43:32.210 ,5,1,0.,24.0,0.,24.0
1979-07-13 20:43:56.210 ,5,0,0.,24.0,0.,24.0
1979-07-13 20:44:20.210 ,4,1,0.,24.0,0.,24.0
1979-07-13 20:44:44.210 ,4,0,0.,24.0,0.,24.0
1979-07-13 20:45:08.210 ,3,1,0.,24.0,0.,24.0
1979-07-13 20:45:32.210 ,3,0,0.,24.0,0.,24.0
1979-07-13 20:45:56.210 ,2,1,0.,24.0,0.,24.0
1979-07-13 20:46:20.210 ,2,0,0.,24.0,0.,24.0
1979-07-13 20:46:44.210 ,1,1,0.,24.0,0.,24.0
1979-07-13 20:47:08.210 ,1,0,1.,24.0,0.,24.0
1979-07-13 20:47:32.210 ,0,1,0.,24.0,0.,24.0
1979-07-13 20:47:56.210 ,0,0,0.,24.0,0.,24.0
1979-07-13 20:48:20.210 ,0,1,0.,24.0,0.,24.0
1979-07-13 20:48:44.210 ,0,0,0.,24.0,0.,24.0
1979-07-13 20:49:08.210 ,1,1,0.,24.0,0.,24.0
1979-07-13 20:49:32.210 ,1,0,0.,24.0,0.,24.0
1979-07-13 20:49:56.210 ,2,1,0.,24.0,0.,24.0
1979-07-13 20:50:20.210 ,2,0,0.,24.0,0.,24.0
1979-07-13 20:50:44.210 ,3,1,0.,24.0,0.,24.0
1979-07-13 20:51:08.210 ,3,0,0.,24.0,0.,24.0
1979-07-13 20:51:32.210 ,4,1,0.,24.0,0.,24.0
1979-07-13 20:51:56.210 ,4,0,0.,24.0,0.,24.0
1979-07-13 20:52:20.210 ,5,1,0.,24.0,0.,24.0
1979-07-13 20:52:44.210 ,5,0,0.,24.0,0.,24.0
1979-07-13 20:53:08.210 ,6,1,0.,24.0,0.,24.0
1979-07-13 20:53:32.210 ,6,0,0.,24.0,0.,24.0
1979-07-13 20:53:56.210 ,7,1,0.,24.0,0.,24.0
1979-07-13 20:54:20.210 ,7,0,0.,24.0,0.,24.0
1979-07-13 20:54:44.210 ,7,1,0.,24.0,0.,24.0
1979-07-13 20:55:08.210 ,7,0,0.,24.0,0.,24.0
1979-07-13 20:55:32.210 ,6,1,0.,24.0,0.,24.0
1979-07-13 20:55:56.210 ,6,0,0.,24.0,0.,24.0
1979-07-13 20:56:20.210 ,5,1,0.,24.0,0.,24.0
1979-07-13 20:56:44.210 ,5,0,0.,24.0,0.,24.0
1979-07-13 20:57:08.210 ,4,1,0.,24.0,0.,24.0
1979-07-13 20:57:32.210 ,4,0,0.,24.0,0.,24.0
1979-07-13 20:57:56.210 ,3,1,0.,24.0,0.,24.0
1979-07-13 20:58:20.210 ,3,0,0.,24.0,0.,24.0
1979-07-13 20:58:44.210 ,2,1,0.,24.0,0.,24.0
1979-07-13 20:59:08.210 ,2,0,0.,24.0,0.,24.0
1979-07-13 20:59:32.210 ,1,1,0.,24.0,0.,24.0
1979-07-13 20:59:56.210 ,1,0,0.,24.0,0.,24.0
1979-07-13 21:00:20.210 ,0,1,0.,24.0,0.,24.0
